Location: Cadeilhan
(42.8161°N, 0.3161°E)
Time: 20:24:43
(UTC+00:00)

Cosmos 2237 Rocket - Pass Details

Date: 18 February 2020
Orbit: 835 x 849 km, 71.0° (Epoch: 07 April)

Event Time Altitude Azimuth Distance (km) Brightness Sun altitude
Exits shadow 03:49:06 22° 8° (N) 1,777 4.0 -34.1°
Drops below altitude 10° 03:51:02 10° 16° (NNE) 2,455 4.9 -33.7°
Sets 03:53:33 0° 21° (NNE) 3,393 5.8 -33.3°
